LIPO

Brescia Airport

Airport
ICAO code
LIPO
IATA Code
VBS
Summary
ICAO Region
EUR
ICAO Territory
Location

Monichiari, Lombardy

Serving
Brescia
Elevation
356 ft
Coordinates
45° 25' 41" N , 10° 19' 42" E
KCC
Metar
LIPO 142320Z AUTO VRB01KT 9999 NCD 18/15 Q1018

Brescia "Gabriele D'Annunzio" Airport, also known as Montichiari Airport, is located in Montichiari, southeast of City of Brescia, Italy.

Climatology

Humid subtropical climate (Köppen climate classification Cfa)

Runways

Designator Length Width Surface Rops
14/32 2990 45 ASP Yes/Yes

Airport map

Aerial View

SKYbrary Partners:

Safety knowledge contributed by: